Location: Fairview
(40.8165°N, 122.7667°W)
Time: 22:39:35
(UTC+00:00)

USA 81 - Pass Details

Date: 11 September 2024
Orbit: 784 x 786 km, 85.0° (Epoch: 06 October)

Event Time Altitude Azimuth Distance (km) Brightness Sun altitude
Rises 03:41:43 0° 332° (NNW) 3,283 8.0 -14.5°
Reaches altitude 10° 03:45:48 10° 301° (WNW) 2,348 7.8 -15.3°
Maximum altitude 03:47:29 12° 282° (WNW) 2,237 7.7 -15.6°
Drops below altitude 10° 03:49:11 10° 263° (W) 2,342 7.5 -15.9°
Sets 03:53:15 0° 232° (SW) 3,263 7.7 -16.6°
